Miscellaneous Local Product
Issued by NWS North Platte, NE

Home | Current Version | Previous Version | Text Only | Print | Product List | Glossary On
Versions: 1 2 3 4 5 6 7 8 9 10 11 12 13 14 15 16 17 18 19 20 21 22 23 24 25 26 27 28 29 30 31 32 33 34 35 36 37 38 39 40 41 42 43 44 45 46 47 48 49 50
000
AXUS43 KLBF 202310
MISLBF


WESTERN AND NORTH CENTRAL NEBRASKA HOURLY WEATHER ROUNDUP
NATIONAL WEATHER SERVICE NORTH PLATTE NE
500 PM CST SAT DEC 20 2014

***STATIONS NOT REPORTING VARIABLES SUCH AS SKY/WEATHER OR
PRESSURE ARE PROVIDED BY THE NEBRASKA DEPARTMENT OF
ROADS...RAWS...AND APRS NETWORKS...AND ARE NOT UNDER
NATIONAL WEATHER SERVICE QUALITY CONTROL***

...OBSERVATIONS IN AND NEAR THE EASTERN PANHANDLE OF NEBRASKA...

CITY           SKY/WX    TMP DP  RH WIND       PRES   REMARKS
PINE RIDGE     PTCLDY    41  27  57 SW5       29.90S
ALLIANCE       PTCLDY    38  30  73 W6        29.91S WCI  33
SIDNEY         CLEAR     42  27  55 NW3       29.95R
WHITECLAY        N/A     41  25  52 CALM        N/A
CRESCENT LAKE    N/A     42  27  55 NW5         N/A
LISCO            N/A     37  25  63 W5          N/A  WCI  33
BIG SPRINGS      N/A     35  29  80 W7          N/A  WCI  29
$$

...OBSERVATIONS IN NORTH CENTRAL NEBRASKA...

CITY           SKY/WX    TMP DP  RH WIND       PRES   REMARKS
VALENTINE      CLOUDY    37  30  75 W5        29.90S WCI  33
THEDFORD       PTCLDY    40  31  69 W5        29.91S
AINSWORTH      MOCLDY    33  28  83 S6        29.90S WCI  27
O`NEILL        MOCLDY    30  30  99 S6        29.95S WCI  24
BROKEN BOW     CLOUDY    40  30  67 CALM      29.93S
BROWNLEE         N/A     38  26  60 SW3         N/A
SPRINGVIEW       N/A     38  29  71 CALM        N/A
BREWSTER         N/A     37  31  78 CALM        N/A
ROSE             N/A     37  33  84 CALM        N/A
SARGENT          N/A     33  30  90 CALM        N/A
COMSTOCK         N/A     38  34  87 S8          N/A  WCI  32
CHAMBERS         N/A     28  25  88 CALM        N/A
EWING            N/A     30  29  97 S3          N/A
$$

...OBSERVATIONS IN SOUTHWEST NEBRASKA AND FAR NORTHEAST COLORADO...

CITY           SKY/WX    TMP DP  RH WIND       PRES   REMARKS
WRAY           CLOUDY    40  32  74 CALM      29.96F
HOLYOKE        FAIR      41  32  70 SW5       29.95F
IMPERIAL       CLOUDY    45  29  53 W5        29.95F
OGALLALA       PTCLDY    36  30  79 W7        29.93F WCI  30
NORTH PLATTE   CLOUDY    37  29  72 CALM      29.94S
MCCOOK         CLOUDY    44  30  57 CALM      29.97S
LEXINGTON      CLOUDY    37  33  85 S5        29.96S WCI  33
PAXTON           N/A     38  33  81 CALM        N/A
BRADY            N/A     39  31  72 CALM        N/A
GOTHENBURG       N/A     41  29  63 CALM        N/A
CALLAWAY         N/A     35  29  80 SW3         N/A
$$

...NORTH PLATTE AREA...

CITY           SKY/WX    TMP DP  RH WIND       PRES   REMARKS
AIRPORT        CLOUDY    37  29  72 CALM      29.94S
DOWNTOWN         N/A     39  31  72 CALM        N/A
$$

...SOME WEATHER OBSERVATIONS FROM AROUND THE REGION...

CITY           SKY/WX    TMP DP  RH WIND       PRES   REMARKS
DENVER         MOCLDY    39  21  48 E10       29.94S WCI  32
LARAMIE        MOCLDY    32  22  66 SW14      29.95S WCI  22
CHEYENNE       PTCLDY    40  20  44 W20G26    29.93S WCI  30
SCOTTSBLUFF    CLEAR     38  28  67 CALM      29.92S
RAPID CITY     MOCLDY    41  27  57 E3        29.88S
PIERRE         CLEAR     25  22  88 E6        29.89S WCI  18
WINNER         MOCLDY    36  28  73 S5        29.90F WCI  32
SIOUX FALLS    CLOUDY    30  28  92 S13       30.02R FOG     WCI  20
OMAHA          CLOUDY    34  32  92 S10       30.09S FOG     WCI  26
GRAND ISLAND   CLOUDY    35  32  88 SE6       29.99F WCI  30
KANSAS CITY    CLOUDY    44  39  82 S9        30.11S
WICHITA        CLOUDY    45  36  70 S18G24    30.09S
HAYS           MOCLDY    46  34  61 S10       30.01S
LIBERAL        MOCLDY    46  36  66 S5        30.03S
GOODLAND       MOCLDY    49  28  44 CALM      29.97S
$$



USA.gov is the U.S. government's official web portal to all federal, state and local government web resources and services.